GW6636 Weather Reports


time (UTC)temp
C
wind
direction
speed
KPH
gust
KPH
rain 1hr
cm
rain 24hr
cm
rain mn
cm
humidity
%
barometer
mb
20260504174226 26 228 1.6 3.2 0.00 0.00 0.00 47 1016.3
20260504173726 26 290 1.6 4.8 0.00 0.00 0.00 48 1016.3
20260504173226 26 241 3.2 6.4 0.00 0.00 0.00 47 1016.2
20260504172727 26 266 1.6 3.2 0.00 0.00 0.00 47 1016.2
20260504172226 26 261 1.6 4.8 0.00 0.00 0.00 47 1016.3
20260504171726 26 237 3.2 4.8 0.00 0.00 0.00 46 1016.4
20260504171226 26 239 1.6 3.2 0.00 0.00 0.00 48 1016.5
20260504170727 26 242 1.6 3.2 0.00 0.00 0.00 47 1016.6
20260504170227 26 245 3.2 6.4 0.00 0.00 0.00 47 1016.5
20260504160227 25 258 3.2 3.2 0.00 0.00 0.00 51 1017.3
20260504150726 23 252 3.2 6.4 0.00 0.00 0.00 55 1017.4
20260504150228 23 239 3.2 6.4 0.00 0.00 0.00 58 1017.5
20260504141226 21 269 1.6 3.2 0.00 0.00 0.00 66 1017.8
20260504140727 20 243 3.2 4.8 0.00 0.00 0.00 66 1017.7
20260504140227 20 270 3.2 6.4 0.00 0.00 0.00 67 1017.7
20260504130727 17 276 0.0 1.6 0.00 0.00 0.00 74 1017.3
20260504130227 16 242 1.6 3.2 0.00 0.00 0.00 76 1017.4
20260504120226 11 0 0.0 0.0 0.00 0.00 0.00 96 1017.4
20260504110226 11 0 0.0 0.0 0.00 0.00 0.00 95 1017.0
20260504100226 11 278 0.0 0.0 0.00 0.00 0.00 94 1016.9
20260504081726 12 0 0.0 0.0 0.00 0.00 0.00 92 1016.8
20260504081226 12 0 0.0 0.0 0.00 0.00 0.00 92 1016.9
20260504080726 12 0 0.0 0.0 0.00 0.00 0.00 92 1016.9
20260504080227 12 0 0.0 0.0 0.00 0.00 0.00 93 1016.9
20260504070226 13 0 0.0 0.0 0.00 0.00 0.00 91 1017.4
20260504060226 13 0 0.0 0.0 0.00 0.00 0.00 90 1017.9
20260504050726 14 15 0.0 0.0 0.00 0.00 0.00 89 1018.3
20260504050231 14 74 0.0 1.6 0.00 0.00 0.00 88 1018.3
20260504045727 14 322 0.0 1.6 0.00 0.00 0.00 88 1018.3
20260504045226 14 0 0.0 0.0 0.00 0.00 0.00 88 1018.3
20260504044726 14 330 0.0 0.0 0.00 0.00 0.00 88 1018.3
20260504044226 14 0 0.0 0.0 0.00 0.00 0.00 88 1018.3
20260504043728 14 128 0.0 0.0 0.00 0.00 0.00 88 1018.3
20260504043226 15 0 0.0 0.0 0.00 0.00 0.00 88 1018.3
20260504042726 15 0 0.0 0.0 0.00 0.00 0.00 88 1018.3
20260504042227 15 0 0.0 0.0 0.00 0.00 0.00 87 1018.2
20260504041729 15 301 0.0 1.6 0.00 0.00 0.00 87 1018.2
20260504041226 15 0 0.0 0.0 0.00 0.00 0.00 86 1018.3
20260504040726 15 0 0.0 0.0 0.00 0.00 0.00 85 1018.4
20260504040227 15 0 0.0 0.0 0.00 0.00 0.00 85 1018.4
20260504035726 15 289 0.0 1.6 0.00 0.00 0.00 85 1018.4
20260504035226 15 0 0.0 0.0 0.00 0.00 0.00 85 1018.4
20260504034726 15 0 0.0 0.0 0.00 0.00 0.00 84 1018.4
20260504034226 15 26 0.0 1.6 0.00 0.00 0.00 84 1018.4
20260504033726 15 0 0.0 0.0 0.00 0.00 0.00 84 1018.4
20260504033226 15 37 0.0 0.0 0.00 0.00 0.00 84 1018.4
20260504032726 15 190 0.0 0.0 0.00 0.00 0.00 84 1018.4
20260504031800 16 157 0.0 0.0 0.00 0.00 0.00 83 1018.4
20260504031228 16 0 0.0 0.0 0.00 0.00 0.00 83 1018.5
20260504030726 16 0 0.0 0.0 0.00 0.00 0.00 82 1018.4
20260504030226 16 119 0.0 0.0 0.00 0.00 0.00 81 1018.4
20260504025727 16 223 0.0 1.6 0.00 0.00 0.00 81 1018.5
20260504025226 16 326 0.0 0.0 0.00 0.00 0.00 81 1018.5
20260504024726 16 240 0.0 1.6 0.00 0.00 0.00 80 1018.5
20260504024226 16 0 0.0 0.0 0.00 0.00 0.00 80 1018.4
20260504023726 16 90 0.0 1.6 0.00 0.00 0.00 79 1018.5
20260504023226 16 85 0.0 1.6 0.00 0.00 0.00 78 1018.4
20260504022727 16 231 0.0 1.6 0.00 0.00 0.00 78 1018.3
20260504022227 17 103 0.0 1.6 0.00 0.00 0.00 79 1018.3
20260504021728 17 0 0.0 0.0 0.00 0.00 0.00 77 1018.3
20260504021226 17 0 0.0 0.0 0.00 0.00 0.00 77 1018.3
20260504020728 17 95 0.0 1.6 0.00 0.00 0.00 76 1018.1
20260504020226 17 76 0.0 1.6 0.00 0.00 0.00 74 1018.1
20260504015726 17 0 0.0 0.0 0.00 0.00 0.00 74 1018.0
20260504015226 17 75 0.0 1.6 0.00 0.00 0.00 73 1018.0
20260504014726 18 13 0.0 1.6 0.00 0.00 0.00 72 1018.0
20260504014226 18 76 0.0 1.6 0.00 0.00 0.00 71 1018.0
20260504013727 18 90 0.0 0.0 0.00 0.00 0.00 71 1018.0
20260504013226 18 0 0.0 0.0 0.00 0.00 0.00 69 1017.9
20260504012727 18 213 0.0 1.6 0.00 0.00 0.00 68 1017.9
20260504012226 18 111 0.0 1.6 0.00 0.00 0.00 67 1017.9
20260504011726 19 77 0.0 1.6 0.00 0.00 0.00 67 1017.9
20260504011226 19 259 1.6 3.2 0.00 0.00 0.00 66 1017.8
20260504010726 20 72 0.0 1.6 0.00 0.00 0.00 65 1017.7
20260504010227 20 0 0.0 0.0 0.00 0.00 0.00 65 1017.6
20260504005726 20 19 0.0 1.6 0.00 0.00 0.00 64 1017.6
20260504005226 21 58 0.0 1.6 0.00 0.00 0.00 63 1017.6
20260504004726 21 100 0.0 1.6 0.00 0.00 0.00 62 1017.6
20260504004226 21 19 0.0 1.6 0.00 0.00 0.00 58 1017.6
20260504003727 21 110 0.0 0.0 0.00 0.00 0.00 55 1017.5
20260504003226 22 0 0.0 0.0 0.00 0.00 0.00 56 1017.4
20260504002726 22 247 0.0 1.6 0.00 0.00 0.00 53 1017.4
20260504002226 22 271 0.0 1.6 0.00 0.00 0.00 53 1017.4
20260504001726 22 264 0.0 1.6 0.00 0.00 0.00 52 1017.4
20260504001227 22 0 0.0 0.0 0.00 0.00 0.00 53 1017.3
20260504000727 22 278 1.6 1.6 0.00 0.00 0.00 52 1017.3
20260504000226 22 264 0.0 1.6 0.00 0.00 0.00 52 1017.3
20260503235726 22 278 0.0 1.6 0.00 0.00 0.00 52 1017.3
20260503235226 22 293 0.0 1.6 0.00 0.00 0.00 52 1017.4
20260503234726 22 293 1.6 1.6 0.00 0.00 0.00 51 1017.4
20260503234226 23 266 1.6 3.2 0.00 0.00 0.00 50 1017.4
20260503233727 23 258 1.6 3.2 0.00 0.00 0.00 50 1017.4
20260503233227 23 282 0.0 1.6 0.00 0.00 0.00 50 1017.4
20260503232726 23 0 0.0 0.0 0.00 0.00 0.00 50 1017.4
20260503232226 23 277 0.0 1.6 0.00 0.00 0.00 49 1017.4
20260503231727 23 277 0.0 1.6 0.00 0.00 0.00 49 1017.5
20260503231226 23 247 0.0 1.6 0.00 0.00 0.00 49 1017.6
20260503230726 23 207 0.0 0.0 0.00 0.00 0.00 48 1017.6
20260503230226 23 256 1.6 3.2 0.00 0.00 0.00 48 1017.6
20260503225726 23 287 1.6 3.2 0.00 0.00 0.00 47 1017.6
20260503225226 24 280 0.0 1.6 0.00 0.00 0.00 46 1017.6
20260503224726 24 290 0.0 1.6 0.00 0.00 0.00 47 1017.6
20260503224226 23 257 3.2 3.2 0.00 0.00 0.00 46 1017.7
20260503223727 23 255 3.2 4.8 0.00 0.00 0.00 46 1017.7
20260503223226 23 295 0.0 3.2 0.00 0.00 0.00 46 1017.7
20260503222726 23 304 0.0 3.2 0.00 0.00 0.00 46 1017.7
20260503222226 23 290 0.0 3.2 0.00 0.00 0.00 47 1017.8
20260503221726 24 246 3.2 3.2 0.00 0.00 0.00 47 1017.7
20260503221226 24 238 1.6 3.2 0.00 0.00 0.00 45 1017.8
20260503220726 25 250 1.6 3.2 0.00 0.00 0.00 45 1017.9
20260503220226 25 264 1.6 3.2 0.00 0.00 0.00 45 1017.9
20260503215726 25 253 3.2 3.2 0.00 0.00 0.00 46 1018.0
20260503215226 24 309 1.6 3.2 0.00 0.00 0.00 46 1017.9
20260503214726 24 251 0.0 3.2 0.00 0.00 0.00 45 1018.0
20260503214226 25 251 3.2 3.2 0.00 0.00 0.00 44 1018.0
20260503213726 25 255 1.6 3.2 0.00 0.00 0.00 45 1018.1
20260503213226 25 257 3.2 4.8 0.00 0.00 0.00 45 1018.2
20260503212726 25 248 3.2 4.8 0.00 0.00 0.00 44 1018.2
20260503212226 25 291 1.6 3.2 0.00 0.00 0.00 43 1018.3
20260503211726 24 298 0.0 1.6 0.00 0.00 0.00 43 1018.3
20260503211226 24 278 1.6 3.2 0.00 0.00 0.00 44 1018.3
20260503210727 24 280 1.6 4.8 0.00 0.00 0.00 46 1018.4
20260503210226 24 342 0.0 3.2 0.00 0.00 0.00 44 1018.5
20260503205727 24 260 0.0 3.2 0.00 0.00 0.00 46 1018.6
20260503205226 24 267 1.6 3.2 0.00 0.00 0.00 45 1018.7
20260503204726 24 289 0.0 3.2 0.00 0.00 0.00 46 1018.8
20260503204226 24 286 1.6 3.2 0.00 0.00 0.00 46 1018.8
20260503203726 24 62 3.2 6.4 0.00 0.00 0.00 42 1018.9
20260503203226 24 177 0.0 1.6 0.00 0.00 0.00 43 1019.0
20260503202727 24 250 3.2 6.4 0.00 0.00 0.00 43 1019.1
20260503202226 24 249 3.2 4.8 0.00 0.00 0.00 45 1019.1
20260503201727 24 290 1.6 3.2 0.00 0.00 0.00 44 1019.2
20260503201226 24 263 1.6 3.2 0.00 0.00 0.00 45 1019.3
20260503200726 24 313 3.2 3.2 0.00 0.00 0.00 43 1019.4
20260503200227 24 307 1.6 3.2 0.00 0.00 0.00 44 1019.4
20260503195726 24 264 0.0 3.2 0.00 0.00 0.00 45 1019.5
20260503195226 24 351 1.6 3.2 0.00 0.00 0.00 43 1019.6
20260503194726 24 257 0.0 3.2 0.00 0.00 0.00 42 1019.7
20260503194226 24 356 1.6 4.8 0.00 0.00 0.00 43 1019.8
20260503193726 24 317 0.0 1.6 0.00 0.00 0.00 43 1019.8
20260503193226 24 261 0.0 3.2 0.00 0.00 0.00 42 1019.9
20260503192726 24 323 1.6 4.8 0.00 0.00 0.00 42 1020.0
20260503192226 24 283 0.0 1.6 0.00 0.00 0.00 41 1020.1
20260503191726 24 342 1.6 3.2 0.00 0.00 0.00 40 1020.0
20260503191226 24 288 0.0 3.2 0.00 0.00 0.00 44 1020.1
20260503190726 24 264 0.0 3.2 0.00 0.00 0.00 43 1020.2
20260503190227 24 258 3.2 4.8 0.00 0.00 0.00 42 1020.3
20260503185727 24 257 0.0 3.2 0.00 0.00 0.00 42 1020.3
20260503185226 24 288 1.6 3.2 0.00 0.00 0.00 43 1020.5
20260503184726 24 262 3.2 4.8 0.00 0.00 0.00 42 1020.6
20260503184230 24 272 0.0 3.2 0.00 0.00 0.00 42 1020.6
20260503183726 25 258 3.2 4.8 0.00 0.00 0.00 41 1020.8
20260503183226 25 273 3.2 4.8 0.00 0.00 0.00 41 1020.8
20260503182726 25 265 1.6 4.8 0.00 0.00 0.00 42 1021.0
20260503182226 25 59 0.0 3.2 0.00 0.00 0.00 40 1021.0
20260503181727 25 287 3.2 6.4 0.00 0.00 0.00 42 1021.0
20260503181226 25 295 1.6 3.2 0.00 0.00 0.00 41 1021.1
20260503180727 25 89 0.0 3.2 0.00 0.00 0.00 43 1021.1
20260503180226 25 0 0.0 0.0 0.00 0.00 0.00 42 1021.3
20260503175726 24 257 0.0 3.2 0.00 0.00 0.00 44 1021.3
20260503175226 24 294 3.2 6.4 0.00 0.00 0.00 43 1021.4
20260503174726 24 211 1.6 3.2 0.00 0.00 0.00 45 1021.4